Location: Akdamlar
(36.8729°N, 30.5187°E)
Time: 19:47:17
(UTC+00:00)

Centaur D-1AR AC-40 - Pass Details

Date: 18 September 2020
Orbit: 612 x 36031 km, 21.4° (Epoch: 26 October)

Event Time Altitude Azimuth Distance (km) Brightness Sun altitude
Rises 18:16:31 0° 265° (W) 8,140 8.1 -27.2°
Reaches altitude 10° 18:25:51 10° 248° (WSW) 4,254 6.3 -28.9°
Maximum altitude 18:30:57 16° 212° (SSW) 2,449 4.6 -29.8°
Enters shadow 18:31:38 16° 203° (SSW) 2,317 4.4 -29.9°
